Fort Eustis, VA

4:07 PM EST on December 06, 2019 (GMT -0500)
Felker Army Air Field

Weather History for KFAF - November, 2019

Change the Weather History Date:

Sunday, November 17, 2019

  Actual Average Record
Temperature  
Mean Temperature 45 °F -  
Max Temperature 48 °F 58 °F 75 °F (1998)
Min Temperature 42 °F 40 °F 28 °F (1997)
Degree Days  
Heating Degree Days 20    
Moisture  
Dew Point 38 °F    
Average Humidity 78    
Maximum Humidity 89    
Minimum Humidity 66    
Precipitation  
Precipitation 0.00 in - - ()
Sea Level Pressure  
Sea Level Pressure 30.03 in    
Wind  
Wind Speed 11 mph ()    
Max Wind Speed 17 mph    
Max Gust Speed 25 mph    
Visibility 9.2 miles    
Events Rain    
Averages and records for this station are not official NWS values.
T = Trace of Precipitation, MM = Missing Value Source: Averaged Metar Reports

Daily Weather History Graph

Daily Weather History Graph

Search for Another Location

Airport or City:

Astronomy

Nov. 17, 2019 Rise Set
Actual Time 6:47 AM EST 4:55 PM EST
Civil Twilight 6:19 AM EST 5:23 PM EST
Nautical Twilight 5:47 AM EST 5:54 PM EST
Astronomical Twilight 5:16 AM EST 6:25 PM EST
Moon 9:31 PM EST (11/17) 11:29 AM EST (11/17)
Length of Visible Light 11h 03m
Length of Day
10h 08m
Waning Gibbous, 73% of the Moon is Illuminated
Nov 17
Waning Gibbous
Nov 19
Last Quarter
Nov 26
New
Dec 4
First Quarter
Dec 12
Full

Hourly Weather History & Observations

Time (EST) Temp. Windchill Dew Point Humidity Pressure Visibility Wind Dir Wind Speed Gust Speed Precip Events Conditions
12:56 AM 42.1 °F 35.7 °F 34.7 °F 75% 30.16 in 10.0 mi NNE 11.5 mph - N/A   Overcast
1:56 AM 42.3 °F 34.8 °F 35.2 °F 76% 30.14 in 10.0 mi NNE 15.0 mph 25.3 mph N/A   Overcast
2:56 AM 42.8 °F 35.8 °F 36.5 °F 78% 30.13 in 10.0 mi NNE 13.8 mph 19.6 mph N/A   Overcast
3:56 AM 43.5 °F 37.1 °F 36.9 °F 77% 30.12 in 10.0 mi NNE 12.7 mph 17.3 mph N/A   Overcast
4:56 AM 43.9 °F 37.2 °F 37.2 °F 77% 30.11 in 10.0 mi North 13.8 mph 20.7 mph N/A   Overcast
5:26 AM 44.6 °F 38.8 °F 37.4 °F 76% 30.11 in 10.0 mi NNE 11.5 mph 19.6 mph N/A   Overcast
5:56 AM 43.2 °F 35.3 °F 35.8 °F 75% 30.11 in 10.0 mi North 17.3 mph 23.0 mph N/A   Overcast
6:56 AM 42.6 °F 35.2 °F 34.9 °F 74% 30.11 in 10.0 mi North 15.0 mph 24.2 mph N/A   Overcast
7:56 AM 43.0 °F 36.4 °F 35.2 °F 74% 30.12 in 10.0 mi North 12.7 mph 18.4 mph N/A   Overcast
9:56 AM 43.5 °F 36.7 °F 35.1 °F 72% 30.12 in 10.0 mi NNE 13.8 mph 18.4 mph N/A   Overcast
10:56 AM 45.1 °F 39.9 °F 35.6 °F 69% 30.10 in 10.0 mi North 10.4 mph 16.1 mph N/A   Overcast
11:56 AM 45.3 °F 41.1 °F 35.8 °F 69% 30.06 in 10.0 mi North 8.1 mph 17.3 mph N/A   Overcast
12:18 PM 46.4 °F 41.9 °F 35.6 °F 66% 30.05 in 10.0 mi North 9.2 mph 19.6 mph N/A Rain Light Rain
12:28 PM 44.6 °F 38.4 °F 35.6 °F 71% 30.05 in 10.0 mi North 12.7 mph 21.9 mph N/A   Overcast
12:56 PM 46.6 °F - 37.0 °F 69% 30.03 in 10.0 mi North 8.1 mph 18.4 mph 0.00 in   Overcast
1:56 PM 48.0 °F - 37.6 °F 67% 30.01 in 10.0 mi North 11.5 mph 19.6 mph N/A   Overcast
2:56 PM 48.4 °F - 37.9 °F 67% 30.00 in 10.0 mi NNE 10.4 mph 17.3 mph N/A   Overcast
3:56 PM 47.8 °F - 38.1 °F 69% 29.99 in 10.0 mi North 10.4 mph - N/A   Overcast
4:56 PM 47.1 °F - 38.5 °F 72% 29.99 in 10.0 mi North 10.4 mph - N/A   Overcast
5:26 PM 46.4 °F 40.7 °F 39.2 °F 76% 29.98 in 10.0 mi North 12.7 mph 19.6 mph N/A   Overcast
5:56 PM 45.7 °F 39.1 °F 39.6 °F 79% 29.98 in 10.0 mi North 15.0 mph 23.0 mph N/A   Overcast
6:56 PM 45.0 °F 38.9 °F 40.5 °F 84% 29.98 in 10.0 mi North 12.7 mph 19.6 mph N/A   Overcast
7:06 PM 44.6 °F 40.2 °F 41.0 °F 87% 29.98 in 10.0 mi North 8.1 mph 19.6 mph N/A   Overcast
7:46 PM 44.6 °F 39.7 °F 41.0 °F 87% 29.97 in 9.0 mi North 9.2 mph - N/A   Overcast
7:56 PM 44.2 °F 37.0 °F 40.3 °F 86% 29.97 in 9.0 mi North 16.1 mph 20.7 mph N/A   Overcast
8:56 PM 44.1 °F 38.1 °F 40.8 °F 88% 29.94 in 8.0 mi North 11.5 mph 17.3 mph N/A   Overcast
9:46 PM 44.6 °F 40.2 °F 41.0 °F 87% 29.93 in 7.0 mi North 8.1 mph - N/A   Overcast
9:56 PM 44.1 °F 40.1 °F 41.0 °F 89% 29.93 in 7.0 mi North 6.9 mph - N/A   Overcast
10:16 PM 44.6 °F 40.2 °F 41.0 °F 87% 29.92 in 7.0 mi North 8.1 mph - N/A   Overcast
10:36 PM 44.6 °F 39.7 °F 41.0 °F 87% 29.92 in 6.0 mi North 9.2 mph - N/A   Overcast
10:56 PM 44.1 °F 40.1 °F 41.0 °F 89% 29.92 in 6.0 mi North 6.9 mph - N/A   Overcast
11:56 PM 44.1 °F 40.1 °F 41.0 °F 89% 29.91 in 5.0 mi North 6.9 mph - N/A   Overcast